Time,TemperatureF,DewpointF,PressureIn,WindDirection,WindDirectionDegrees,WindSpeedMPH,WindSpeedGustMPH,Humidity,HourlyPrecipIn,Conditions,Clouds,dailyrainin,SoftwareType,DateUTC
2013-04-13 00:00:00,36.8,35.8,29.75,NNE,22,4.0,8.0,96,0.00,,,-99.99,WeatherLink 5.7,2013-04-13 04:00:00,
2013-04-13 00:05:00,36.8,35.8,29.75,NNE,22,3.0,7.0,96,0.00,,,-99.99,WeatherLink 5.7,2013-04-13 04:05:00,
2013-04-13 00:10:00,36.8,35.8,29.75,NNE,22,3.0,6.0,96,0.00,,,-99.99,WeatherLink 5.7,2013-04-13 04:10:00,
2013-04-13 00:15:00,36.8,35.8,29.75,NNE,22,2.0,5.0,96,0.00,,,-99.99,WeatherLink 5.7,2013-04-13 04:15:00,
2013-04-13 00:20:00,36.8,35.8,29.75,NNE,22,3.0,7.0,96,0.00,,,-99.99,WeatherLink 5.7,2013-04-13 04:20:00,
2013-04-13 00:25:00,36.6,35.6,29.75,NNE,22,3.0,7.0,96,0.00,,,-99.99,WeatherLink 5.7,2013-04-13 04:25:00,
2013-04-13 00:30:00,36.6,35.6,29.74,NE,45,4.0,10.0,96,0.00,,,-99.99,WeatherLink 5.7,2013-04-13 04:30:00,
2013-04-13 00:35:00,36.6,35.6,29.74,NNE,22,4.0,8.0,96,0.00,,,-99.99,WeatherLink 5.7,2013-04-13 04:35:00,
2013-04-13 00:40:00,36.6,35.6,29.74,NE,45,5.0,11.0,96,0.00,,,-99.99,WeatherLink 5.7,2013-04-13 04:40:00,
2013-04-13 00:45:00,36.6,35.6,29.74,NE,45,5.0,9.0,96,0.00,,,-99.99,WeatherLink 5.7,2013-04-13 04:45:00,
2013-04-13 00:50:00,36.6,35.6,29.74,NNE,22,2.0,6.0,96,0.00,,,-99.99,WeatherLink 5.7,2013-04-13 04:50:00,
2013-04-13 00:55:00,36.6,35.6,29.74,NNE,22,4.0,12.0,96,0.00,,,-99.99,WeatherLink 5.7,2013-04-13 04:55:00,
2013-04-13 01:00:00,36.6,35.6,29.74,NNE,22,4.0,12.0,96,0.00,,,-99.99,WeatherLink 5.7,2013-04-13 05:00:00,
2013-04-13 01:05:00,36.6,35.6,29.74,ESE,112,2.0,4.0,96,0.00,,,-99.99,WeatherLink 5.7,2013-04-13 05:05:00,
2013-04-13 01:10:00,36.6,35.6,29.74,NE,45,5.0,12.0,96,0.00,,,-99.99,WeatherLink 5.7,2013-04-13 05:10:00,
2013-04-13 01:15:00,36.6,35.6,29.76,NNE,22,2.0,5.0,96,0.00,,,-99.99,WeatherLink 5.7,2013-04-13 05:15:00,
2013-04-13 01:20:00,36.8,35.8,29.76,NNE,22,2.0,5.0,96,0.00,,,-99.99,WeatherLink 5.7,2013-04-13 05:20:00,
2013-04-13 01:25:00,36.8,35.8,29.76,NNE,22,2.0,4.0,96,0.00,,,-99.99,WeatherLink 5.7,2013-04-13 05:25:00,
2013-04-13 01:30:00,36.8,35.8,29.75,ENE,67,3.0,6.0,96,0.00,,,-99.99,WeatherLink 5.7,2013-04-13 05:30:00,
2013-04-13 01:35:00,36.6,35.6,29.75,NE,45,1.0,5.0,96,0.00,,,-99.99,WeatherLink 5.7,2013-04-13 05:35:00,
2013-04-13 01:40:00,36.6,35.6,29.75,NNE,22,3.0,6.0,96,0.00,,,-99.99,WeatherLink 5.7,2013-04-13 05:40:00,
2013-04-13 01:45:00,36.6,35.6,29.74,NNE,22,3.0,6.0,96,0.00,,,-99.99,WeatherLink 5.7,2013-04-13 05:45:00,
2013-04-13 01:50:00,36.6,35.6,29.74,NNE,22,4.0,8.0,96,0.00,,,-99.99,WeatherLink 5.7,2013-04-13 05:50:00,
2013-04-13 01:55:00,36.6,35.6,29.74,NNE,22,3.0,8.0,96,0.00,,,-99.99,WeatherLink 5.7,2013-04-13 05:55:00,
2013-04-13 02:00:00,36.6,35.6,29.74,NNE,22,3.0,6.0,96,0.00,,,-99.99,WeatherLink 5.7,2013-04-13 06:00:00,
2013-04-13 02:05:00,36.5,35.5,29.74,NNE,22,2.0,6.0,96,0.00,,,-99.99,WeatherLink 5.7,2013-04-13 06:05:00,
2013-04-13 02:10:00,36.5,35.5,29.74,NNE,22,1.0,4.0,96,0.00,,,-99.99,WeatherLink 5.7,2013-04-13 06:10:00,
2013-04-13 02:15:00,36.5,35.5,29.75,NNE,22,2.0,5.0,96,0.00,,,-99.99,WeatherLink 5.7,2013-04-13 06:15:00,
2013-04-13 02:20:00,36.5,35.5,29.75,NNE,22,3.0,6.0,96,0.00,,,-99.99,WeatherLink 5.7,2013-04-13 06:20:00,
2013-04-13 02:25:00,36.3,35.3,29.75,NE,45,3.0,8.0,96,0.00,,,-99.99,WeatherLink 5.7,2013-04-13 06:25:00,
2013-04-13 02:30:00,36.3,35.3,29.75,NNE,22,2.0,6.0,96,0.00,,,-99.99,WeatherLink 5.7,2013-04-13 06:30:00,
2013-04-13 02:35:00,36.3,35.3,29.75,NW,315,1.0,5.0,96,0.00,,,-99.99,WeatherLink 5.7,2013-04-13 06:35:00,
2013-04-13 02:40:00,36.3,35.3,29.75,NW,315,2.0,6.0,96,0.00,,,-99.99,WeatherLink 5.7,2013-04-13 06:40:00,
2013-04-13 02:45:00,36.3,35.3,29.78,NNE,22,2.0,5.0,96,0.00,,,-99.99,WeatherLink 5.7,2013-04-13 06:45:00,
2013-04-13 02:50:00,36.2,35.2,29.78,NNE,22,2.0,6.0,96,0.00,,,-99.99,WeatherLink 5.7,2013-04-13 06:50:00,
2013-04-13 02:55:00,36.2,35.2,29.78,NNE,22,2.0,4.0,96,0.00,,,-99.99,WeatherLink 5.7,2013-04-13 06:55:00,
2013-04-13 03:00:00,36.0,35.0,29.75,NE,45,3.0,7.0,96,0.00,,,-99.99,WeatherLink 5.7,2013-04-13 07:00:00,
2013-04-13 03:05:00,36.0,35.0,29.75,NNE,22,3.0,6.0,96,0.00,,,-99.99,WeatherLink 5.7,2013-04-13 07:05:00,
2013-04-13 03:10:00,36.0,35.0,29.75,NNE,22,4.0,7.0,96,0.00,,,-99.99,WeatherLink 5.7,2013-04-13 07:10:00,
2013-04-13 03:15:00,35.9,34.9,29.71,ENE,67,6.0,10.0,96,0.00,,,-99.99,WeatherLink 5.7,2013-04-13 07:15:00,
2013-04-13 03:20:00,35.9,34.9,29.71,NE,45,4.0,7.0,96,0.00,,,-99.99,WeatherLink 5.7,2013-04-13 07:20:00,
2013-04-13 03:25:00,35.9,34.9,29.71,North,0,3.0,11.0,96,0.00,,,-99.99,WeatherLink 5.7,2013-04-13 07:25:00,
2013-04-13 03:30:00,35.9,34.9,29.73,NNE,22,3.0,8.0,96,0.00,,,-99.99,WeatherLink 5.7,2013-04-13 07:30:00,
2013-04-13 03:35:00,35.9,34.9,29.73,North,0,1.0,5.0,96,0.00,,,-99.99,WeatherLink 5.7,2013-04-13 07:35:00,
2013-04-13 03:40:00,35.9,34.9,29.73,North,0,3.0,10.0,96,0.00,,,-99.99,WeatherLink 5.7,2013-04-13 07:40:00,
2013-04-13 03:45:00,35.8,34.8,29.73,NNE,22,4.0,10.0,96,0.00,,,-99.99,WeatherLink 5.7,2013-04-13 07:45:00,
2013-04-13 03:50:00,35.5,34.5,29.73,NNE,22,3.0,11.0,96,0.00,,,-99.99,WeatherLink 5.7,2013-04-13 07:50:00,
2013-04-13 03:55:00,35.3,34.3,29.73,NNE,22,3.0,6.0,96,0.00,,,-99.99,WeatherLink 5.7,2013-04-13 07:55:00,
2013-04-13 04:00:00,35.2,34.2,29.72,NNE,22,2.0,7.0,96,0.00,,,-99.99,WeatherLink 5.7,2013-04-13 08:00:00,
2013-04-13 04:05:00,35.0,34.0,29.72,NNE,22,2.0,7.0,96,0.00,,,-99.99,WeatherLink 5.7,2013-04-13 08:05:00,
2013-04-13 04:10:00,34.9,33.9,29.72,NE,45,3.0,6.0,96,0.00,,,-99.99,WeatherLink 5.7,2013-04-13 08:10:00,
2013-04-13 04:15:00,34.7,33.7,29.71,North,0,3.0,6.0,96,0.00,,,-99.99,WeatherLink 5.7,2013-04-13 08:15:00,
2013-04-13 04:20:00,34.6,33.6,29.71,NNE,22,3.0,6.0,96,0.00,,,-99.99,WeatherLink 5.7,2013-04-13 08:20:00,
2013-04-13 04:25:00,34.6,33.6,29.71,NNE,22,3.0,7.0,96,0.00,,,-99.99,WeatherLink 5.7,2013-04-13 08:25:00,
2013-04-13 04:30:00,34.4,33.4,29.72,North,0,3.0,6.0,96,0.00,,,-99.99,WeatherLink 5.7,2013-04-13 08:30:00,
2013-04-13 04:35:00,34.4,33.4,29.72,NNE,22,3.0,7.0,96,0.00,,,-99.99,WeatherLink 5.7,2013-04-13 08:35:00,
2013-04-13 04:40:00,34.4,33.4,29.72,NNE,22,2.0,4.0,96,0.00,,,-99.99,WeatherLink 5.7,2013-04-13 08:40:00,
2013-04-13 04:45:00,34.4,33.4,29.73,North,0,1.0,3.0,96,0.00,,,-99.99,WeatherLink 5.7,2013-04-13 08:45:00,
2013-04-13 04:50:00,34.4,33.4,29.73,NNE,22,2.0,6.0,96,0.00,,,-99.99,WeatherLink 5.7,2013-04-13 08:50:00,
2013-04-13 04:55:00,34.3,33.3,29.73,North,0,2.0,6.0,96,0.00,,,-99.99,WeatherLink 5.7,2013-04-13 08:55:00,
2013-04-13 05:00:00,34.4,33.4,29.75,NNE,22,1.0,5.0,96,0.00,,,-99.99,WeatherLink 5.7,2013-04-13 09:00:00,
2013-04-13 05:05:00,34.4,33.4,29.75,NNW,337,1.0,6.0,96,0.00,,,-99.99,WeatherLink 5.7,2013-04-13 09:05:00,
2013-04-13 05:10:00,34.4,33.4,29.75,North,0,1.0,6.0,96,0.00,,,-99.99,WeatherLink 5.7,2013-04-13 09:10:00,
2013-04-13 05:15:00,34.4,33.4,29.74,NW,315,1.0,6.0,96,0.00,,,-99.99,WeatherLink 5.7,2013-04-13 09:15:00,
2013-04-13 05:20:00,34.4,33.4,29.74,NNW,337,1.0,5.0,96,0.00,,,-99.99,WeatherLink 5.7,2013-04-13 09:20:00,
2013-04-13 05:25:00,34.4,33.4,29.74,NNW,337,1.0,5.0,96,0.00,,,-99.99,WeatherLink 5.7,2013-04-13 09:25:00,
2013-04-13 05:30:00,34.6,33.6,29.74,NNW,337,0.0,1.0,96,0.00,,,-99.99,WeatherLink 5.7,2013-04-13 09:30:00,
2013-04-13 05:35:00,34.6,33.6,29.74,NNW,337,0.0,3.0,96,0.00,,,-99.99,WeatherLink 5.7,2013-04-13 09:35:00,
2013-04-13 05:40:00,34.6,33.6,29.74,NNW,337,0.0,2.0,96,0.00,,,-99.99,WeatherLink 5.7,2013-04-13 09:40:00,
2013-04-13 05:45:00,34.6,33.6,29.74,NNW,337,0.0,2.0,96,0.00,,,-99.99,WeatherLink 5.7,2013-04-13 09:45:00,
2013-04-13 05:50:00,34.4,33.4,29.74,NNW,337,1.0,6.0,96,0.00,,,-99.99,WeatherLink 5.7,2013-04-13 09:50:00,
2013-04-13 05:55:00,34.4,33.4,29.74,NNW,337,0.0,2.0,96,0.00,,,-99.99,WeatherLink 5.7,2013-04-13 09:55:00,
2013-04-13 06:00:00,34.6,33.6,29.75,NNW,337,0.0,5.0,96,0.00,,,-99.99,WeatherLink 5.7,2013-04-13 10:00:00,
2013-04-13 06:05:00,34.6,33.6,29.75,NNW,337,1.0,6.0,96,0.00,,,-99.99,WeatherLink 5.7,2013-04-13 10:05:00,
2013-04-13 06:10:00,34.6,33.6,29.75,NW,315,2.0,6.0,96,0.00,,,-99.99,WeatherLink 5.7,2013-04-13 10:10:00,
2013-04-13 06:15:00,34.6,33.6,29.75,NNW,337,1.0,5.0,96,0.00,,,-99.99,WeatherLink 5.7,2013-04-13 10:15:00,
2013-04-13 06:20:00,34.6,33.6,29.75,NNW,337,0.0,3.0,96,0.00,,,-99.99,WeatherLink 5.7,2013-04-13 10:20:00,
2013-04-13 06:25:00,34.6,33.6,29.75,North,0,1.0,5.0,96,0.00,,,-99.99,WeatherLink 5.7,2013-04-13 10:25:00,
2013-04-13 06:30:00,34.6,33.6,29.76,North,0,0.0,5.0,96,0.00,,,-99.99,WeatherLink 5.7,2013-04-13 10:30:00,
2013-04-13 06:35:00,34.6,33.6,29.76,North,0,1.0,3.0,96,0.00,,,-99.99,WeatherLink 5.7,2013-04-13 10:35:00,
2013-04-13 06:40:00,34.7,33.7,29.76,NW,315,1.0,7.0,96,0.00,,,-99.99,WeatherLink 5.7,2013-04-13 10:40:00,
2013-04-13 06:45:00,34.7,33.7,29.77,NW,315,2.0,7.0,96,0.00,,,-99.99,WeatherLink 5.7,2013-04-13 10:45:00,
2013-04-13 06:50:00,34.7,33.7,29.77,NNW,337,2.0,7.0,96,0.00,,,-99.99,WeatherLink 5.7,2013-04-13 10:50:00,
2013-04-13 06:55:00,34.7,33.7,29.77,NNW,337,1.0,3.0,96,0.00,,,-99.99,WeatherLink 5.7,2013-04-13 10:55:00,
2013-04-13 07:00:00,34.6,33.6,29.77,NNE,22,1.0,3.0,96,0.00,,,-99.99,WeatherLink 5.7,2013-04-13 11:00:00,
2013-04-13 07:05:00,34.7,33.7,29.77,NNE,22,0.0,5.0,96,0.00,,,-99.99,WeatherLink 5.7,2013-04-13 11:05:00,
2013-04-13 07:10:00,34.9,33.9,29.77,North,0,1.0,6.0,96,0.00,,,-99.99,WeatherLink 5.7,2013-04-13 11:10:00,
2013-04-13 07:15:00,35.0,34.0,29.78,North,0,1.0,7.0,96,0.00,,,-99.99,WeatherLink 5.7,2013-04-13 11:15:00,
2013-04-13 07:20:00,35.0,34.0,29.78,North,0,1.0,3.0,96,0.00,,,-99.99,WeatherLink 5.7,2013-04-13 11:20:00,
2013-04-13 07:25:00,35.0,33.7,29.78,North,0,0.0,1.0,95,0.00,,,-99.99,WeatherLink 5.7,2013-04-13 11:25:00,
2013-04-13 07:30:00,35.0,33.7,29.78,North,0,0.0,2.0,95,0.00,,,-99.99,WeatherLink 5.7,2013-04-13 11:30:00,
2013-04-13 07:35:00,35.0,33.7,29.78,North,0,0.0,1.0,95,0.00,,,-99.99,WeatherLink 5.7,2013-04-13 11:35:00,
2013-04-13 07:40:00,35.0,33.7,29.78,North,-999,0.0,0.0,95,0.00,,,-99.99,WeatherLink 5.7,2013-04-13 11:40:00,
2013-04-13 07:45:00,35.2,33.9,29.78,North,0,0.0,3.0,95,0.00,,,-99.99,WeatherLink 5.7,2013-04-13 11:45:00,
2013-04-13 07:50:00,35.2,33.9,29.78,NNW,337,1.0,3.0,95,0.00,,,-99.99,WeatherLink 5.7,2013-04-13 11:50:00,
2013-04-13 07:55:00,35.2,33.9,29.78,North,0,1.0,5.0,95,0.00,,,-99.99,WeatherLink 5.7,2013-04-13 11:55:00,
2013-04-13 08:00:00,35.2,33.9,29.78,North,0,1.0,5.0,95,0.00,,,-99.99,WeatherLink 5.7,2013-04-13 12:00:00,
2013-04-13 08:05:00,35.2,33.6,29.78,NNE,22,1.0,3.0,94,0.00,,,-99.99,WeatherLink 5.7,2013-04-13 12:05:00,
2013-04-13 08:10:00,35.2,33.6,29.78,North,-999,0.0,0.0,94,0.00,,,-99.99,WeatherLink 5.7,2013-04-13 12:10:00,
2013-04-13 08:15:00,35.3,33.7,29.78,North,0,1.0,2.0,94,0.00,,,-99.99,WeatherLink 5.7,2013-04-13 12:15:00,
2013-04-13 08:20:00,35.3,33.7,29.78,North,0,0.0,2.0,94,0.00,,,-99.99,WeatherLink 5.7,2013-04-13 12:20:00,
2013-04-13 08:25:00,35.2,33.4,29.78,East,90,2.0,5.0,93,0.00,,,-99.99,WeatherLink 5.7,2013-04-13 12:25:00,
2013-04-13 08:30:00,35.2,33.4,29.78,NE,45,1.0,3.0,93,0.00,,,-99.99,WeatherLink 5.7,2013-04-13 12:30:00,
2013-04-13 08:35:00,35.3,33.5,29.78,NNE,22,1.0,2.0,93,0.00,,,-99.99,WeatherLink 5.7,2013-04-13 12:35:00,
2013-04-13 08:40:00,35.3,33.2,29.78,NE,45,1.0,4.0,92,0.00,,,-99.99,WeatherLink 5.7,2013-04-13 12:40:00,
2013-04-13 08:45:00,35.5,33.4,29.78,NE,45,1.0,3.0,92,0.00,,,-99.99,WeatherLink 5.7,2013-04-13 12:45:00,
2013-04-13 08:50:00,35.9,34.1,29.78,NNE,22,0.0,2.0,93,0.00,,,-99.99,WeatherLink 5.7,2013-04-13 12:50:00,
2013-04-13 08:55:00,36.3,34.2,29.78,NNE,22,0.0,2.0,92,0.00,,,-99.99,WeatherLink 5.7,2013-04-13 12:55:00,
2013-04-13 09:00:00,36.6,34.5,29.78,NW,315,1.0,5.0,92,0.00,,,-99.99,WeatherLink 5.7,2013-04-13 13:00:00,
2013-04-13 09:05:00,37.0,34.9,29.78,North,0,1.0,3.0,92,0.00,,,-99.99,WeatherLink 5.7,2013-04-13 13:05:00,
2013-04-13 09:10:00,37.2,35.1,29.78,North,0,1.0,3.0,92,0.00,,,-99.99,WeatherLink 5.7,2013-04-13 13:10:00,
2013-04-13 09:15:00,37.3,34.9,29.78,NNW,337,1.0,3.0,91,0.00,,,-99.99,WeatherLink 5.7,2013-04-13 13:15:00,
2013-04-13 09:20:00,37.0,34.3,29.78,North,0,1.0,2.0,90,0.00,,,-99.99,WeatherLink 5.7,2013-04-13 13:20:00,
2013-04-13 09:25:00,37.2,34.5,29.78,NE,45,1.0,3.0,90,0.00,,,-99.99,WeatherLink 5.7,2013-04-13 13:25:00,
2013-04-13 09:30:00,37.5,34.6,29.78,NNE,22,1.0,2.0,89,0.00,,,-99.99,WeatherLink 5.7,2013-04-13 13:30:00,
2013-04-13 09:35:00,37.8,34.8,29.78,NNE,22,0.0,2.0,89,0.00,,,-99.99,WeatherLink 5.7,2013-04-13 13:35:00,
2013-04-13 09:40:00,38.0,34.8,29.78,North,0,0.0,2.0,88,0.00,,,-99.99,WeatherLink 5.7,2013-04-13 13:40:00,
2013-04-13 09:45:00,38.2,35.0,29.78,North,0,0.0,2.0,88,0.00,,,-99.99,WeatherLink 5.7,2013-04-13 13:45:00,
2013-04-13 09:50:00,38.3,35.1,29.78,West,270,1.0,2.0,88,0.00,,,-99.99,WeatherLink 5.7,2013-04-13 13:50:00,
2013-04-13 09:55:00,38.8,35.6,29.78,North,0,1.0,3.0,88,0.00,,,-99.99,WeatherLink 5.7,2013-04-13 13:55:00,
2013-04-13 10:00:00,39.1,35.6,29.79,North,0,0.0,2.0,87,0.00,,,-99.99,WeatherLink 5.7,2013-04-13 14:00:00,
2013-04-13 10:05:00,39.3,35.5,29.79,North,0,0.0,2.0,86,0.00,,,-99.99,WeatherLink 5.7,2013-04-13 14:05:00,
2013-04-13 10:10:00,39.6,35.8,29.79,North,0,1.0,3.0,86,0.00,,,-99.99,WeatherLink 5.7,2013-04-13 14:10:00,
2013-04-13 10:15:00,39.9,35.8,29.79,NW,315,1.0,3.0,85,0.00,,,-99.99,WeatherLink 5.7,2013-04-13 14:15:00,
2013-04-13 10:20:00,40.3,35.8,29.79,West,270,0.0,2.0,84,0.00,,,-99.99,WeatherLink 5.7,2013-04-13 14:20:00,
2013-04-13 10:25:00,40.6,35.5,29.79,West,270,0.0,2.0,82,0.00,,,-99.99,WeatherLink 5.7,2013-04-13 14:25:00,
2013-04-13 10:30:00,40.8,35.4,29.79,West,270,1.0,5.0,81,0.00,,,-99.99,WeatherLink 5.7,2013-04-13 14:30:00,
2013-04-13 10:35:00,41.1,35.7,29.79,WSW,247,1.0,5.0,81,0.00,,,-99.99,WeatherLink 5.7,2013-04-13 14:35:00,
2013-04-13 10:40:00,41.6,35.9,29.79,West,270,0.0,3.0,80,0.00,,,-99.99,WeatherLink 5.7,2013-04-13 14:40:00,
2013-04-13 10:45:00,42.2,36.2,29.78,WNW,292,0.0,2.0,79,0.00,,,-99.99,WeatherLink 5.7,2013-04-13 14:45:00,
2013-04-13 10:50:00,42.9,35.5,29.78,NW,315,2.0,6.0,75,0.00,,,-99.99,WeatherLink 5.7,2013-04-13 14:50:00,
2013-04-13 10:55:00,43.8,35.7,29.78,North,0,2.0,5.0,73,0.00,,,-99.99,WeatherLink 5.7,2013-04-13 14:55:00,
2013-04-13 11:00:00,44.3,35.8,29.78,West,270,2.0,4.0,72,0.00,,,-99.99,WeatherLink 5.7,2013-04-13 15:00:00,
2013-04-13 11:05:00,44.6,36.1,29.78,NE,45,2.0,5.0,72,0.00,,,-99.99,WeatherLink 5.7,2013-04-13 15:05:00,
2013-04-13 11:15:00,45.5,36.6,29.79,West,270,1.0,3.0,71,0.00,,,-99.99,WeatherLink 5.7,2013-04-13 15:15:00,
2013-04-13 11:20:00,45.8,35.8,29.79,WNW,292,1.0,3.0,68,0.00,,,-99.99,WeatherLink 5.7,2013-04-13 15:20:00,
2013-04-13 11:25:00,46.1,36.5,29.79,SSW,202,1.0,5.0,69,0.00,,,-99.99,WeatherLink 5.7,2013-04-13 15:25:00,
2013-04-13 11:30:00,46.4,35.7,29.78,SSW,202,2.0,6.0,66,0.00,,,-99.99,WeatherLink 5.7,2013-04-13 15:30:00,
2013-04-13 11:35:00,46.4,36.8,29.78,South,180,2.0,5.0,69,0.00,,,-99.99,WeatherLink 5.7,2013-04-13 15:35:00,
2013-04-13 11:40:00,46.8,36.0,29.78,ENE,67,1.0,5.0,66,0.00,,,-99.99,WeatherLink 5.7,2013-04-13 15:40:00,
2013-04-13 11:45:00,46.8,37.5,29.78,NE,45,0.0,2.0,70,0.00,,,-99.99,WeatherLink 5.7,2013-04-13 15:45:00,
2013-04-13 11:50:00,47.7,36.9,29.78,NNW,337,3.0,6.0,66,0.00,,,-99.99,WeatherLink 5.7,2013-04-13 15:50:00,
2013-04-13 11:55:00,48.5,37.3,29.78,West,270,2.0,3.0,65,0.00,,,-99.99,WeatherLink 5.7,2013-04-13 15:55:00,
2013-04-13 12:00:00,49.1,36.6,29.78,WNW,292,2.0,6.0,62,0.00,,,-99.99,WeatherLink 5.7,2013-04-13 16:00:00,
2013-04-13 12:05:00,49.5,36.6,29.78,SSW,202,2.0,5.0,61,0.00,,,-99.99,WeatherLink 5.7,2013-04-13 16:05:00,
2013-04-13 12:10:00,50.1,38.0,29.78,WSW,247,2.0,6.0,63,0.00,,,-99.99,WeatherLink 5.7,2013-04-13 16:10:00,
2013-04-13 12:15:00,50.8,38.2,29.77,SSW,202,1.0,4.0,62,0.00,,,-99.99,WeatherLink 5.7,2013-04-13 16:15:00,
2013-04-13 12:20:00,51.7,37.4,29.77,WNW,292,2.0,6.0,58,0.00,,,-99.99,WeatherLink 5.7,2013-04-13 16:20:00,
2013-04-13 12:25:00,52.3,37.1,29.77,West,270,1.0,4.0,56,0.00,,,-99.99,WeatherLink 5.7,2013-04-13 16:25:00,
2013-04-13 12:30:00,52.3,38.8,29.77,SSW,202,1.0,6.0,60,0.00,,,-99.99,WeatherLink 5.7,2013-04-13 16:30:00,
2013-04-13 12:35:00,52.2,37.9,29.77,NNW,337,1.0,6.0,58,0.00,,,-99.99,WeatherLink 5.7,2013-04-13 16:35:00,
2013-04-13 12:40:00,52.8,38.4,29.77,NW,315,2.0,5.0,58,0.00,,,-99.99,WeatherLink 5.7,2013-04-13 16:40:00,
2013-04-13 12:45:00,53.1,37.8,29.76,West,270,1.0,6.0,56,0.00,,,-99.99,WeatherLink 5.7,2013-04-13 16:45:00,
2013-04-13 12:50:00,53.5,37.7,29.76,WNW,292,1.0,6.0,55,0.00,,,-99.99,WeatherLink 5.7,2013-04-13 16:50:00,
2013-04-13 12:55:00,54.2,38.4,29.76,West,270,1.0,5.0,55,0.00,,,-99.99,WeatherLink 5.7,2013-04-13 16:55:00,
2013-04-13 13:00:00,54.7,37.4,29.76,WNW,292,2.0,5.0,52,0.00,,,-99.99,WeatherLink 5.7,2013-04-13 17:00:00,
2013-04-13 13:05:00,54.5,37.7,29.76,West,270,2.0,5.0,53,0.00,,,-99.99,WeatherLink 5.7,2013-04-13 17:05:00,
2013-04-13 13:10:00,54.5,37.2,29.76,WNW,292,2.0,5.0,52,0.00,,,-99.99,WeatherLink 5.7,2013-04-13 17:10:00,
2013-04-13 13:15:00,53.9,38.6,29.76,West,270,1.0,5.0,56,0.00,,,-99.99,WeatherLink 5.7,2013-04-13 17:15:00,
2013-04-13 13:20:00,53.6,36.4,29.76,NNW,337,2.0,6.0,52,0.00,,,-99.99,WeatherLink 5.7,2013-04-13 17:20:00,
2013-04-13 13:25:00,53.9,37.1,29.76,NNW,337,1.0,3.0,53,0.00,,,-99.99,WeatherLink 5.7,2013-04-13 17:25:00,
2013-04-13 13:30:00,54.2,35.9,29.76,West,270,2.0,7.0,50,0.00,,,-99.99,WeatherLink 5.7,2013-04-13 17:30:00,
2013-04-13 13:35:00,54.8,36.5,29.76,West,270,3.0,7.0,50,0.00,,,-99.99,WeatherLink 5.7,2013-04-13 17:35:00,
2013-04-13 13:40:00,55.7,36.3,29.76,WNW,292,2.0,7.0,48,0.00,,,-99.99,WeatherLink 5.7,2013-04-13 17:40:00,
2013-04-13 13:45:00,56.2,36.2,29.75,WSW,247,3.0,8.0,47,0.00,,,-99.99,WeatherLink 5.7,2013-04-13 17:45:00,
2013-04-13 13:50:00,56.5,35.4,29.75,West,270,3.0,8.0,45,0.00,,,-99.99,WeatherLink 5.7,2013-04-13 17:50:00,
2013-04-13 13:55:00,56.6,34.3,29.75,NW,315,3.0,9.0,43,0.00,,,-99.99,WeatherLink 5.7,2013-04-13 17:55:00,
2013-04-13 14:00:00,56.6,34.3,29.74,North,0,2.0,5.0,43,0.00,,,-99.99,WeatherLink 5.7,2013-04-13 18:00:00,
2013-04-13 14:05:00,56.6,36.6,29.74,WSW,247,2.0,5.0,47,0.00,,,-99.99,WeatherLink 5.7,2013-04-13 18:05:00,
2013-04-13 14:10:00,56.2,35.7,29.74,WSW,247,2.0,6.0,46,0.00,,,-99.99,WeatherLink 5.7,2013-04-13 18:10:00,
2013-04-13 14:15:00,55.7,35.8,29.74,WNW,292,2.0,5.0,47,0.00,,,-99.99,WeatherLink 5.7,2013-04-13 18:15:00,
2013-04-13 14:20:00,55.4,36.0,29.74,West,270,2.0,6.0,48,0.00,,,-99.99,WeatherLink 5.7,2013-04-13 18:20:00,
2013-04-13 14:25:00,55.3,35.9,29.74,West,270,1.0,5.0,48,0.00,,,-99.99,WeatherLink 5.7,2013-04-13 18:25:00,
2013-04-13 14:30:00,55.3,37.0,29.74,WSW,247,1.0,5.0,50,0.00,,,-99.99,WeatherLink 5.7,2013-04-13 18:30:00,
2013-04-13 14:35:00,55.6,36.7,29.74,West,270,2.0,6.0,49,0.00,,,-99.99,WeatherLink 5.7,2013-04-13 18:35:00,
2013-04-13 14:40:00,55.7,35.8,29.74,West,270,0.0,2.0,47,0.00,,,-99.99,WeatherLink 5.7,2013-04-13 18:40:00,
2013-04-13 14:45:00,54.8,37.0,29.74,North,0,0.0,2.0,51,0.00,,,-99.99,WeatherLink 5.7,2013-04-13 18:45:00,
2013-04-13 14:50:00,54.5,36.7,29.74,SW,225,2.0,7.0,51,0.00,,,-99.99,WeatherLink 5.7,2013-04-13 18:50:00,
2013-04-13 14:55:00,54.8,36.5,29.74,West,270,2.0,6.0,50,0.00,,,-99.99,WeatherLink 5.7,2013-04-13 18:55:00,
2013-04-13 15:00:00,55.1,35.7,29.74,WNW,292,1.0,3.0,48,0.00,,,-99.99,WeatherLink 5.7,2013-04-13 19:00:00,
2013-04-13 15:05:00,55.3,36.5,29.74,NW,315,3.0,7.0,49,0.00,,,-99.99,WeatherLink 5.7,2013-04-13 19:05:00,
2013-04-13 15:10:00,55.1,36.8,29.74,West,270,2.0,5.0,50,0.00,,,-99.99,WeatherLink 5.7,2013-04-13 19:10:00,
2013-04-13 15:15:00,54.8,35.5,29.74,WNW,292,2.0,6.0,48,0.00,,,-99.99,WeatherLink 5.7,2013-04-13 19:15:00,
2013-04-13 15:20:00,54.4,35.6,29.74,West,270,1.0,3.0,49,0.00,,,-99.99,WeatherLink 5.7,2013-04-13 19:20:00,
2013-04-13 15:25:00,54.1,36.9,29.74,East,90,1.0,3.0,52,0.00,,,-99.99,WeatherLink 5.7,2013-04-13 19:25:00,
2013-04-13 15:30:00,53.8,37.1,29.74,WNW,292,1.0,4.0,53,0.00,,,-99.99,WeatherLink 5.7,2013-04-13 19:30:00,
2013-04-13 15:35:00,53.6,35.9,29.74,West,270,1.0,3.0,51,0.00,,,-99.99,WeatherLink 5.7,2013-04-13 19:35:00,
2013-04-13 15:40:00,53.6,36.4,29.74,West,270,1.0,3.0,52,0.00,,,-99.99,WeatherLink 5.7,2013-04-13 19:40:00,
2013-04-13 15:45:00,53.5,35.8,29.74,NNW,337,1.0,2.0,51,0.00,,,-99.99,WeatherLink 5.7,2013-04-13 19:45:00,
2013-04-13 15:50:00,53.5,36.8,29.74,WSW,247,1.0,3.0,53,0.00,,,-99.99,WeatherLink 5.7,2013-04-13 19:50:00,
2013-04-13 15:55:00,53.5,36.3,29.74,West,270,1.0,5.0,52,0.00,,,-99.99,WeatherLink 5.7,2013-04-13 19:55:00,
2013-04-13 16:00:00,53.5,36.8,29.74,West,270,1.0,3.0,53,0.00,,,-99.99,WeatherLink 5.7,2013-04-13 20:00:00,
2013-04-13 16:05:00,53.5,36.8,29.74,West,270,0.0,2.0,53,0.00,,,-99.99,WeatherLink 5.7,2013-04-13 20:05:00,
2013-04-13 16:10:00,53.3,36.1,29.74,West,270,0.0,2.0,52,0.00,,,-99.99,WeatherLink 5.7,2013-04-13 20:10:00,
2013-04-13 16:15:00,53.3,35.6,29.74,SW,225,1.0,2.0,51,0.00,,,-99.99,WeatherLink 5.7,2013-04-13 20:15:00,
2013-04-13 16:20:00,53.5,35.8,29.74,SW,225,1.0,2.0,51,0.00,,,-99.99,WeatherLink 5.7,2013-04-13 20:20:00,
2013-04-13 16:25:00,53.6,36.4,29.74,West,270,1.0,5.0,52,0.00,,,-99.99,WeatherLink 5.7,2013-04-13 20:25:00,
2013-04-13 16:30:00,53.3,35.6,29.75,SSW,202,1.0,3.0,51,0.00,,,-99.99,WeatherLink 5.7,2013-04-13 20:30:00,
2013-04-13 16:35:00,53.3,34.6,29.75,WSW,247,2.0,6.0,49,0.00,,,-99.99,WeatherLink 5.7,2013-04-13 20:35:00,
2013-04-13 16:40:00,53.3,35.6,29.75,South,180,2.0,6.0,51,0.00,,,-99.99,WeatherLink 5.7,2013-04-13 20:40:00,
2013-04-13 16:45:00,53.2,34.0,29.75,WSW,247,2.0,5.0,48,0.00,,,-99.99,WeatherLink 5.7,2013-04-13 20:45:00,
2013-04-13 16:50:00,53.1,34.9,29.75,WSW,247,1.0,3.0,50,0.00,,,-99.99,WeatherLink 5.7,2013-04-13 20:50:00,
2013-04-13 16:55:00,53.2,35.0,29.75,WSW,247,0.0,2.0,50,0.00,,,-99.99,WeatherLink 5.7,2013-04-13 20:55:00,
2013-04-13 17:00:00,53.2,36.0,29.76,WSW,247,0.0,2.0,52,0.00,,,-99.99,WeatherLink 5.7,2013-04-13 21:00:00,
2013-04-13 17:05:00,53.3,35.1,29.76,North,-999,0.0,0.0,50,0.00,,,-99.99,WeatherLink 5.7,2013-04-13 21:05:00,
2013-04-13 17:10:00,53.2,35.0,29.76,North,-999,0.0,0.0,50,0.00,,,-99.99,WeatherLink 5.7,2013-04-13 21:10:00,
2013-04-13 17:15:00,52.8,34.7,29.77,WSW,247,0.0,2.0,50,0.00,,,-99.99,WeatherLink 5.7,2013-04-13 21:15:00,
2013-04-13 17:20:00,52.8,36.6,29.77,North,-999,0.0,0.0,54,0.00,,,-99.99,WeatherLink 5.7,2013-04-13 21:20:00,
2013-04-13 17:25:00,52.9,34.2,29.77,North,-999,0.0,0.0,49,0.00,,,-99.99,WeatherLink 5.7,2013-04-13 21:25:00,
2013-04-13 17:30:00,52.9,34.8,29.77,North,-999,0.0,0.0,50,0.00,,,-99.99,WeatherLink 5.7,2013-04-13 21:30:00,
2013-04-13 17:35:00,52.9,35.7,29.77,WSW,247,0.0,2.0,52,0.00,,,-99.99,WeatherLink 5.7,2013-04-13 21:35:00,
2013-04-13 17:40:00,52.6,34.5,29.77,North,-999,0.0,0.0,50,0.00,,,-99.99,WeatherLink 5.7,2013-04-13 21:40:00,
2013-04-13 17:45:00,52.0,34.4,29.78,North,-999,0.0,0.0,51,0.00,,,-99.99,WeatherLink 5.7,2013-04-13 21:45:00,
2013-04-13 17:50:00,51.6,35.0,29.78,North,-999,0.0,0.0,53,0.00,,,-99.99,WeatherLink 5.7,2013-04-13 21:50:00,
2013-04-13 17:55:00,51.4,34.8,29.78,North,-999,0.0,0.0,53,0.00,,,-99.99,WeatherLink 5.7,2013-04-13 21:55:00,
2013-04-13 18:00:00,51.3,34.7,29.78,North,-999,0.0,0.0,53,0.00,,,-99.99,WeatherLink 5.7,2013-04-13 22:00:00,
2013-04-13 18:05:00,51.3,34.7,29.78,North,-999,0.0,0.0,53,0.00,,,-99.99,WeatherLink 5.7,2013-04-13 22:05:00,
2013-04-13 18:10:00,51.1,35.9,29.78,WSW,247,0.0,2.0,56,0.00,,,-99.99,WeatherLink 5.7,2013-04-13 22:10:00,
2013-04-13 18:15:00,51.0,35.4,29.78,North,-999,0.0,0.0,55,0.00,,,-99.99,WeatherLink 5.7,2013-04-13 22:15:00,
2013-04-13 18:20:00,51.0,34.9,29.78,North,-999,0.0,0.0,54,0.00,,,-99.99,WeatherLink 5.7,2013-04-13 22:20:00,
2013-04-13 18:25:00,50.8,35.2,29.78,WSW,247,0.0,1.0,55,0.00,,,-99.99,WeatherLink 5.7,2013-04-13 22:25:00,
2013-04-13 18:30:00,50.8,35.2,29.79,WSW,247,1.0,2.0,55,0.00,,,-99.99,WeatherLink 5.7,2013-04-13 22:30:00,
2013-04-13 18:35:00,50.8,35.2,29.79,WSW,247,1.0,2.0,55,0.00,,,-99.99,WeatherLink 5.7,2013-04-13 22:35:00,
2013-04-13 18:40:00,50.7,35.6,29.79,North,-999,0.0,0.0,56,0.00,,,-99.99,WeatherLink 5.7,2013-04-13 22:40:00,
2013-04-13 18:45:00,50.7,36.5,29.79,North,-999,0.0,0.0,58,0.00,,,-99.99,WeatherLink 5.7,2013-04-13 22:45:00,
2013-04-13 18:50:00,50.5,36.7,29.79,North,-999,0.0,0.0,59,0.00,,,-99.99,WeatherLink 5.7,2013-04-13 22:50:00,
2013-04-13 18:55:00,50.5,36.3,29.79,North,-999,0.0,0.0,58,0.00,,,-99.99,WeatherLink 5.7,2013-04-13 22:55:00,
2013-04-13 19:00:00,50.5,36.7,29.80,North,-999,0.0,0.0,59,0.00,,,-99.99,WeatherLink 5.7,2013-04-13 23:00:00,
2013-04-13 19:05:00,50.4,37.0,29.80,North,-999,0.0,0.0,60,0.00,,,-99.99,WeatherLink 5.7,2013-04-13 23:05:00,
2013-04-13 19:10:00,50.4,36.6,29.80,North,-999,0.0,0.0,59,0.00,,,-99.99,WeatherLink 5.7,2013-04-13 23:10:00,
2013-04-13 19:15:00,50.2,36.8,29.80,North,-999,0.0,0.0,60,0.00,,,-99.99,WeatherLink 5.7,2013-04-13 23:15:00,
2013-04-13 19:20:00,50.1,38.0,29.80,North,-999,0.0,0.0,63,0.00,,,-99.99,WeatherLink 5.7,2013-04-13 23:20:00,
2013-04-13 19:25:00,49.8,37.7,29.80,North,-999,0.0,0.0,63,0.00,,,-99.99,WeatherLink 5.7,2013-04-13 23:25:00,
2013-04-13 19:30:00,49.6,37.5,29.80,North,-999,0.0,0.0,63,0.00,,,-99.99,WeatherLink 5.7,2013-04-13 23:30:00,
2013-04-13 19:35:00,49.5,36.2,29.80,North,-999,0.0,0.0,60,0.00,,,-99.99,WeatherLink 5.7,2013-04-13 23:35:00,
2013-04-13 19:40:00,49.5,37.0,29.80,North,-999,0.0,0.0,62,0.00,,,-99.99,WeatherLink 5.7,2013-04-13 23:40:00,
2013-04-13 19:45:00,49.4,36.5,29.80,North,-999,0.0,0.0,61,0.00,,,-99.99,WeatherLink 5.7,2013-04-13 23:45:00,
2013-04-13 19:50:00,49.2,37.1,29.80,North,-999,0.0,0.0,63,0.00,,,-99.99,WeatherLink 5.7,2013-04-13 23:50:00,
2013-04-13 19:55:00,49.1,37.0,29.80,North,-999,0.0,0.0,63,0.00,,,-99.99,WeatherLink 5.7,2013-04-13 23:55:00,
2013-04-13 20:00:00,48.9,37.6,29.81,North,-999,0.0,0.0,65,0.00,,,-99.99,WeatherLink 5.7,2013-04-14 00:00:00,
2013-04-13 20:05:00,48.8,37.9,29.81,North,-999,0.0,0.0,66,0.00,,,-99.99,WeatherLink 5.7,2013-04-14 00:05:00,
2013-04-13 20:10:00,48.6,36.6,29.81,North,-999,0.0,0.0,63,0.00,,,-99.99,WeatherLink 5.7,2013-04-14 00:10:00,
2013-04-13 20:15:00,48.5,37.7,29.82,North,-999,0.0,0.0,66,0.00,,,-99.99,WeatherLink 5.7,2013-04-14 00:15:00,
2013-04-13 20:20:00,48.3,37.5,29.82,WSW,247,0.0,1.0,66,0.00,,,-99.99,WeatherLink 5.7,2013-04-14 00:20:00,
2013-04-13 20:25:00,48.2,37.4,29.82,North,-999,0.0,0.0,66,0.00,,,-99.99,WeatherLink 5.7,2013-04-14 00:25:00,
2013-04-13 20:30:00,47.9,37.8,29.83,North,-999,0.0,0.0,68,0.00,,,-99.99,WeatherLink 5.7,2013-04-14 00:30:00,
2013-04-13 20:35:00,47.6,36.4,29.83,North,-999,0.0,0.0,65,0.00,,,-99.99,WeatherLink 5.7,2013-04-14 00:35:00,
2013-04-13 20:40:00,47.6,36.4,29.83,North,-999,0.0,0.0,65,0.00,,,-99.99,WeatherLink 5.7,2013-04-14 00:40:00,
2013-04-13 20:45:00,47.4,37.7,29.83,North,-999,0.0,0.0,69,0.00,,,-99.99,WeatherLink 5.7,2013-04-14 00:45:00,
2013-04-13 20:50:00,47.1,38.2,29.83,North,-999,0.0,0.0,71,0.00,,,-99.99,WeatherLink 5.7,2013-04-14 00:50:00,
2013-04-13 20:55:00,47.0,38.1,29.83,North,-999,0.0,0.0,71,0.00,,,-99.99,WeatherLink 5.7,2013-04-14 00:55:00,
2013-04-13 21:00:00,46.8,38.2,29.84,North,-999,0.0,0.0,72,0.00,,,-99.99,WeatherLink 5.7,2013-04-14 01:00:00,
2013-04-13 21:05:00,46.8,38.2,29.84,North,-999,0.0,0.0,72,0.00,,,-99.99,WeatherLink 5.7,2013-04-14 01:05:00,
2013-04-13 21:10:00,46.7,38.5,29.84,North,-999,0.0,0.0,73,0.00,,,-99.99,WeatherLink 5.7,2013-04-14 01:10:00,
2013-04-13 21:15:00,46.5,38.3,29.83,North,-999,0.0,0.0,73,0.00,,,-99.99,WeatherLink 5.7,2013-04-14 01:15:00,
2013-04-13 21:20:00,46.4,38.9,29.83,North,-999,0.0,0.0,75,0.00,,,-99.99,WeatherLink 5.7,2013-04-14 01:20:00,
2013-04-13 21:25:00,46.1,38.6,29.83,North,-999,0.0,0.0,75,0.00,,,-99.99,WeatherLink 5.7,2013-04-14 01:25:00,
2013-04-13 21:30:00,46.0,38.5,29.83,North,-999,0.0,0.0,75,0.00,,,-99.99,WeatherLink 5.7,2013-04-14 01:30:00,
2013-04-13 21:35:00,45.8,38.3,29.83,North,-999,0.0,0.0,75,0.00,,,-99.99,WeatherLink 5.7,2013-04-14 01:35:00,
2013-04-13 21:40:00,45.7,38.6,29.83,North,-999,0.0,0.0,76,0.00,,,-99.99,WeatherLink 5.7,2013-04-14 01:40:00,
2013-04-13 21:45:00,45.7,38.6,29.84,North,-999,0.0,0.0,76,0.00,,,-99.99,WeatherLink 5.7,2013-04-14 01:45:00,
2013-04-13 21:50:00,45.5,38.4,29.84,North,-999,0.0,0.0,76,0.00,,,-99.99,WeatherLink 5.7,2013-04-14 01:50:00,
2013-04-13 21:55:00,45.4,38.3,29.84,North,-999,0.0,0.0,76,0.00,,,-99.99,WeatherLink 5.7,2013-04-14 01:55:00,
2013-04-13 22:00:00,45.4,38.6,29.84,North,-999,0.0,0.0,77,0.00,,,-99.99,WeatherLink 5.7,2013-04-14 02:00:00,
2013-04-13 22:05:00,45.4,38.9,29.84,North,-999,0.0,0.0,78,0.00,,,-99.99,WeatherLink 5.7,2013-04-14 02:05:00,
2013-04-13 22:10:00,45.2,38.7,29.84,North,-999,0.0,0.0,78,0.00,,,-99.99,WeatherLink 5.7,2013-04-14 02:10:00,
2013-04-13 22:15:00,45.2,38.7,29.84,North,-999,0.0,0.0,78,0.00,,,-99.99,WeatherLink 5.7,2013-04-14 02:15:00,
2013-04-13 22:20:00,45.1,39.0,29.84,North,-999,0.0,0.0,79,0.00,,,-99.99,WeatherLink 5.7,2013-04-14 02:20:00,
2013-04-13 22:25:00,44.9,38.8,29.84,North,-999,0.0,0.0,79,0.00,,,-99.99,WeatherLink 5.7,2013-04-14 02:25:00,
2013-04-13 22:30:00,44.9,38.8,29.84,North,-999,0.0,0.0,79,0.00,,,-99.99,WeatherLink 5.7,2013-04-14 02:30:00,
2013-04-13 22:35:00,44.8,38.7,29.84,North,-999,0.0,0.0,79,0.00,,,-99.99,WeatherLink 5.7,2013-04-14 02:35:00,
2013-04-13 22:40:00,44.8,38.7,29.84,North,-999,0.0,0.0,79,0.00,,,-99.99,WeatherLink 5.7,2013-04-14 02:40:00,
2013-04-13 22:45:00,44.6,38.8,29.84,North,-999,0.0,0.0,80,0.00,,,-99.99,WeatherLink 5.7,2013-04-14 02:45:00,
2013-04-13 22:50:00,44.5,38.7,29.84,North,-999,0.0,0.0,80,0.00,,,-99.99,WeatherLink 5.7,2013-04-14 02:50:00,
2013-04-13 22:55:00,44.5,39.0,29.84,North,-999,0.0,0.0,81,0.00,,,-99.99,WeatherLink 5.7,2013-04-14 02:55:00,
2013-04-13 23:00:00,44.5,39.0,29.85,North,-999,0.0,0.0,81,0.00,,,-99.99,WeatherLink 5.7,2013-04-14 03:00:00,
2013-04-13 23:05:00,44.3,38.8,29.85,North,-999,0.0,0.0,81,0.00,,,-99.99,WeatherLink 5.7,2013-04-14 03:05:00,
2013-04-13 23:10:00,44.3,38.8,29.85,North,-999,0.0,0.0,81,0.00,,,-99.99,WeatherLink 5.7,2013-04-14 03:10:00,
2013-04-13 23:15:00,44.2,39.1,29.85,North,-999,0.0,0.0,82,0.00,,,-99.99,WeatherLink 5.7,2013-04-14 03:15:00,
2013-04-13 23:20:00,44.2,39.1,29.85,North,-999,0.0,0.0,82,0.00,,,-99.99,WeatherLink 5.7,2013-04-14 03:20:00,
2013-04-13 23:25:00,44.1,39.0,29.85,North,-999,0.0,0.0,82,0.00,,,-99.99,WeatherLink 5.7,2013-04-14 03:25:00,
2013-04-13 23:30:00,44.1,39.3,29.85,North,-999,0.0,0.0,83,0.00,,,-99.99,WeatherLink 5.7,2013-04-14 03:30:00,
2013-04-13 23:35:00,44.1,39.3,29.85,North,-999,0.0,0.0,83,0.00,,,-99.99,WeatherLink 5.7,2013-04-14 03:35:00,
2013-04-13 23:40:00,43.9,39.4,29.85,North,-999,0.0,0.0,84,0.00,,,-99.99,WeatherLink 5.7,2013-04-14 03:40:00,
2013-04-13 23:45:00,43.9,39.4,29.86,WSW,247,0.0,3.0,84,0.00,,,-99.99,WeatherLink 5.7,2013-04-14 03:45:00,
2013-04-13 23:50:00,44.1,39.3,29.86,West,270,2.0,6.0,83,0.00,,,-99.99,WeatherLink 5.7,2013-04-14 03:50:00,
2013-04-13 23:55:00,44.2,38.7,29.86,West,270,3.0,6.0,81,0.00,,,-99.99,WeatherLink 5.7,2013-04-14 03:55:00,